This demonstration page uses our WeatherBlox Daily Observations layout. Learn more.

Left ArrowRight Arrow

Hourly Observations for July 13, 2016

Temp ( °F °C ) Dew Point ( °F °C ) Humidity (%) Winds ( mph kmh ) Pressure ( in mb ) Visibility ( mi km ) Precip ( " mm )
12:15 am 00:15 Clear 69 20.7 66 18.7 88 88 SE 7 11 29.80 1009 10 16 N/A
12:35 am 00:35 Clear 69 20.6 66 18.8 89 89 SE 8 13 29.80 1009 10 16 N/A
12:55 am 00:55 Clear 69 20.8 66 19.1 90 90 SSE 7 11 29.80 1009 10 16 N/A
1:15 am 01:15 Clear 69 20.8 67 19.2 91 91 SSE 8 13 29.77 1008 10 16 N/A
1:35 am 01:35 Clear 69 20.8 67 19.5 92 92 SE 8 13 29.77 1008 10 16 N/A
1:55 am 01:55 Clear 70 21.3 68 20 92 92 SSE 8 13 29.77 1008 7 11 N/A
2:15 am 02:15 Clear 71 21.5 69 20.4 93 93 SSE 8 13 29.77 1008 7 11 N/A
2:35 am 02:35 Clear 71 21.9 69 20.7 93 93 S 6 9 29.77 1008 7 11 N/A
2:55 am 02:55 Clear 72 22.2 70 21 93 93 S 7 11 29.77 1008 7 11 N/A
3:15 am 03:15 Partly Cloudy 72 22.2 70 21 93 93 S 10 17 29.77 1008 7 11 N/A
3:35 am 03:35 Partly Cloudy 72 22.2 70 21.1 94 94 SSE 6 9 29.77 1008 7 11 N/A
3:55 am 03:55 Mostly Cloudy 72 22.2 70 21.1 94 94 SSE 6 9 29.77 1008 7 11 N/A
4:15 am 04:15 Mostly Cloudy with Drizzle 73 22.7 70 21.3 92 92 SSW 7 11 29.77 1008 7 11 N/A
4:35 am 04:35 Partly Cloudy 74 23.1 69 20.5 85 85 WNW 6 9 29.77 1008 10 16 N/A
4:55 am 04:55 Clear with Light Rain 73 22.9 66 18.7 77 77 WNW 15 24 29.80 1009 10 16 N/A
5:15 am 05:15 Clear 75 23.7 53 11.6 47 47 WSW 17 28 29.80 1009 10 16 N/A
5:35 am 05:35 Windy with Storms Likely 75 23.7 53 11.4 46 46 WSW 21 33 29.83 1010 10 16 N/A
5:55 am 05:55 Mostly Cloudy with Light Rain 70 21.1 56 13.6 62 62 WSW 18 30 29.85 1011 10 16 0.01 0.25
6:15 am 06:15 Cloudy with Rain 68 20.1 58 14.3 69 69 SW 13 20 29.88 1012 10 16 0.03 0.76
6:35 am 06:35 Windy with Storms Likely 69 20.6 55 13 62 62 SSE 30 48 29.71 1006 10 16 0.05 1.27
6:55 am 06:55 Partly Cloudy 69 20.3 56 13.4 65 65 SSE 17 28 29.74 1007 10 16 0.05 1.27
7:15 am 07:15 Sunny 68 19.9 57 13.8 68 68 SSE 14 22 29.77 1008 10 16 N/A
7:35 am 07:35 Sunny 68 20.2 56 13.4 65 65 SSE 13 20 29.77 1008 10 16 N/A
7:55 am 07:55 Sunny 69 20.4 56 13.6 65 65 SSE 12 19 29.77 1008 10 16 N/A
8:15 am 08:15 Sunny 69 20.5 57 14 66 66 SSE 12 19 29.77 1008 10 16 N/A
8:35 am 08:35 Sunny 69 20.6 58 14.4 68 68 SE 8 13 29.77 1008 10 16 N/A
8:55 am 08:55 Sunny 71 21.5 57 14 62 62 SE 10 17 29.77 1008 10 16 N/A
9:15 am 09:15 Sunny 72 22 58 14.6 63 63 ESE 7 11 29.77 1008 10 16 N/A
9:35 am 09:35 Sunny 72 22.4 59 15 63 63 ESE 7 11 29.77 1008 10 16 N/A
10:35 am 10:35 Sunny 77 24.8 58 14.6 53 53 NW 3 6 29.80 1009 10 16 N/A
11:35 am 11:35 Sunny 80 26.6 59 14.9 49 49 NW 5 7 29.80 1009 10 16 N/A
11:55 am 11:55 Sunny 80 26.7 59 15 49 49 NW 5 7 29.80 1009 10 16 N/A
12:15 pm 12:15 Sunny 80 26.8 60 15.4 50 50 W 6 9 29.80 1009 10 16 N/A
12:35 pm 12:35 Sunny 82 27.5 58 14.5 45 45 WNW 5 7 29.80 1009 10 16 N/A
1:15 pm 13:15 Sunny 82 27.9 59 14.8 45 45 N N/A 29.80 1009 10 16 N/A
1:35 pm 13:35 Sunny 82 28 60 15.4 46 46 NW 3 6 29.80 1009 10 16 N/A
2:15 pm 14:15 Sunny 84 28.8 60 15.4 44 44 NW 7 11 29.80 1009 10 16 N/A
2:35 pm 14:35 Sunny 84 29 61 16.2 46 46 NNW 6 9 29.80 1009 10 16 N/A
2:55 pm 14:55 Sunny 85 29.2 60 15.7 44 44 NW 7 11 29.80 1009 10 16 N/A
3:15 pm 15:15 Sunny 85 29.5 61 16.2 45 45 NNW 7 11 29.80 1009 10 16 N/A
3:35 pm 15:35 Sunny 85 29.7 62 16.4 45 45 NNW 10 17 29.80 1009 10 16 N/A
3:55 pm 15:55 Sunny 85 29.6 62 16.4 45 45 WNW 7 11 29.80 1009 10 16 N/A
4:15 pm 16:15 Sunny 85 29.7 62 16.4 45 45 NNE 3 6 29.80 1009 10 16 N/A
4:35 pm 16:35 Sunny 86 30 60 15.8 42 42 NE 6 9 29.77 1008 10 16 N/A
4:55 pm 16:55 Sunny 86 30.1 60 15.6 41 41 ENE 5 7 29.77 1008 7 11 N/A
5:15 pm 17:15 Sunny 86 30.1 63 17 45 45 N 5 7 29.77 1008 10 16 N/A
5:55 pm 17:55 Sunny 86 30.1 61 16.3 43 43 NNE 5 7 29.77 1008 10 16 N/A
6:15 pm 18:15 Sunny 86 29.8 62 16.5 45 45 N 3 6 29.80 1009 10 16 N/A
6:35 pm 18:35 Sunny 85 29.5 63 17.4 48 48 NNE 9 15 29.80 1009 10 16 N/A
6:55 pm 18:55 Sunny 85 29.5 64 17.7 49 49 NE 6 9 29.80 1009 10 16 N/A
7:15 pm 19:15 Sunny 84 29 63 17.4 50 50 NE 7 11 29.83 1010 10 16 N/A
7:35 pm 19:35 Sunny 83 28.5 66 18.7 55 55 ENE 5 7 29.83 1010 10 16 N/A
7:55 pm 19:55 Sunny 82 27.8 67 19.2 60 60 ENE 5 7 29.83 1010 10 16 N/A
8:15 pm 20:15 Sunny 80 26.8 67 19.4 64 64 ENE 5 7 29.83 1010 10 16 N/A
8:35 pm 20:35 Sunny 78 25.8 67 19.3 67 67 E 5 7 29.85 1011 10 16 N/A
8:55 pm 20:55 Sunny 76 24.4 67 19.4 74 74 E 6 9 29.85 1011 10 16 N/A
9:15 pm 21:15 Clear 74 23.1 67 19.4 80 80 E 6 9 29.85 1011 10 16 N/A
9:35 pm 21:35 Clear 73 23 66 18.7 77 77 E 6 9 29.85 1011 10 16 N/A
9:55 pm 21:55 Clear 72 22.2 65 18.6 80 80 E 5 7 29.91 1013 10 16 N/A
10:15 pm 22:15 Clear 71 21.8 66 18.7 83 83 E 6 9 29.91 1013 10 16 N/A
10:35 pm 22:35 Clear 70 21.1 65 18.6 86 86 E 5 7 29.91 1013 10 16 N/A
10:55 pm 22:55 Clear 69 20.6 65 18.3 87 87 E 6 9 29.91 1013 10 16 N/A
11:15 pm 23:15 Clear 69 20.5 65 18.3 87 87 E 6 9 29.94 1014 10 16 N/A
11:35 pm 23:35 Clear 69 20.8 65 18.4 86 86 E 7 11 29.94 1014 10 16 N/A
11:55 pm 23:55 Clear 70 21.2 64 18 82 82 E 9 15 29.94 1014 10 16 N/A

Powered by AerisWeather